星链-36740(STARLINK-36740)

导读

STARLINK-36740是美国于2026年2月11日发射的星链卫星,星链计划是由美国太空探索技术公司(SpaceX)推出的低轨巨型星座项目,旨在为全球提供高速互联网服务,该卫星是星链星座组网进程中新增的卫星节点,将进一步拓展星链系统的全球覆盖能力与服务性能。

基本信息
目录编号:
67741
目录名称:
STARLINK-36740
国际标识:
2026-026W
轨道中心:
EARTH
卫星名称:
星链-36740
卫星全名:
星链-36740(STARLINK-36740)
卫星状态:
在轨 (已飞行206 天)
发射日期:
2026-02-11 UTC
国别 :
美国 (US)
星等 :
--
轨道信息
数据来源 国际轨道数据 AOE轨道数据
星历时间 2026-09-05T11:45:38+0800
9小时前
查看轨道信息
2026-09-04T00:00:00+0800
1天前
查看轨道信息
半长轴 6843.664km 6843.714km
偏心率 0.0001064 0.0000472
轨道倾角 97.288° 97.285°
近地点辐角 112.564° 79.205°
升交点赤经 300.277° 298.806°
平近点角 247.572° 340.779°
近地点 464.798km 465.253km
远地点 466.256km 465.901km
周期 93.906分钟 93.907分钟
每日圈数 15.334506 15.334337
详细信息
固有亮度:
5
最大亮度:
2.5
卫星平台:
Starlink V1.0
覆盖范围:
全球
运营商:
太空探索技术公司
运营商所在国:
美国
制造商(研发单位):
太空探索技术公司
制造商所在国:
美国
使用方式:
暂无
卫星简介
Starlink 计划是 SpaceX 推出的全球卫星互联网项目,通过发射低轨道卫星,为全球尤其是偏远地区提供高速、低延迟的互联网服务。自 2019 年起,Starlink 已部署数千颗卫星,旨在缩小全球数字鸿沟,推动互联网普及。该项目还为军事、航空等行业提供通信支持,带来广泛经济效益。
2D轨道图
3D轨道图
轨道高度分析图
轨道倾角分析图
轨道综合分析图
查看轨道综合分析图
交会数据列表
事件ID 空间交会对象 最接近时刻(TCA) 交会距离 交会风险概率(CRP) 交会风险指数(CRI) 操作
CDM_260907-194905-401106-774121
2026-09-07T
19:49:03+0000
2.102 km
极远距离
2.488679E-6 低风险 0.43
CDM_260905-210105-397906-774122
2026-09-05T
21:01:18+0000
2.930 km
极远距离
1.376068E-6 低风险 0.38
CDM_260830-082904-836106-774121
2026-08-30T
08:29:13+0000
2.729 km
极远距离
9.430365E-7 极低风险 0.34